Time,TemperatureF,DewpointF,PressureIn,WindDirection,WindDirectionDegrees,WindSpeedMPH,WindSpeedGustMPH,Humidity,HourlyPrecipIn,Conditions,Clouds,dailyrainin,SoftwareType,DateUTC
2013-04-06 00:03:00,26.0,15.0,30.04,NNW,338,3.0,7.0,63,0.00,,,0.00,,2013-04-06 04:03:00,
2013-04-06 00:14:00,26.0,15.0,30.04,NNW,338,3.0,7.0,63,0.00,,,0.00,,2013-04-06 04:14:00,
2013-04-06 00:23:00,26.0,16.0,30.05,North,354,3.0,6.0,64,0.00,,,0.00,,2013-04-06 04:23:00,
2013-04-06 00:33:00,26.0,16.0,30.05,NNW,332,4.0,7.0,65,0.00,,,0.00,,2013-04-06 04:33:00,
2013-04-06 00:42:00,26.0,16.0,30.05,NNW,332,4.0,7.0,65,0.00,,,0.00,,2013-04-06 04:42:00,
2013-04-06 00:53:00,26.0,16.0,30.06,North,351,4.0,8.0,65,0.00,,,0.00,,2013-04-06 04:53:00,
2013-04-06 01:02:00,26.0,16.0,30.07,NNW,348,5.0,7.0,65,0.00,,,0.00,,2013-04-06 05:02:00,
2013-04-06 01:13:00,26.0,16.0,30.07,NNW,348,5.0,7.0,65,0.00,,,0.00,,2013-04-06 05:13:00,
2013-04-06 01:22:00,26.0,16.0,30.08,NNW,343,4.0,10.0,66,0.00,,,0.00,,2013-04-06 05:22:00,
2013-04-06 01:32:00,26.0,16.0,30.08,NNW,334,3.0,7.0,66,0.00,,,0.00,,2013-04-06 05:32:00,
2013-04-06 01:42:00,26.0,16.0,30.08,NNW,334,3.0,7.0,66,0.00,,,0.00,,2013-04-06 05:42:00,
2013-04-06 01:52:00,26.0,16.0,30.08,North,355,4.0,7.0,66,0.00,,,0.00,,2013-04-06 05:52:00,
2013-04-06 02:03:00,26.0,16.0,30.09,North,356,4.0,7.0,66,0.00,,,0.00,,2013-04-06 06:03:00,
2013-04-06 02:12:00,26.0,16.0,30.09,North,356,4.0,7.0,66,0.00,,,0.00,,2013-04-06 06:12:00,
2013-04-06 02:22:00,25.0,16.0,30.10,North,8,3.0,7.0,67,0.00,,,0.00,,2013-04-06 06:22:00,
2013-04-06 02:32:00,25.0,16.0,30.10,North,357,4.0,7.0,68,0.00,,,0.00,,2013-04-06 06:32:00,
2013-04-06 02:42:00,25.0,16.0,30.10,North,357,4.0,7.0,68,0.00,,,0.00,,2013-04-06 06:42:00,
2013-04-06 02:53:00,25.0,16.0,30.11,North,358,3.0,6.0,68,0.00,,,0.00,,2013-04-06 06:53:00,
2013-04-06 03:03:00,25.0,16.0,30.11,North,356,2.0,7.0,69,0.00,,,0.00,,2013-04-06 07:03:00,
2013-04-06 03:12:00,25.0,16.0,30.11,North,356,2.0,7.0,69,0.00,,,0.00,,2013-04-06 07:12:00,
2013-04-06 03:22:00,24.0,15.0,30.11,North,0,3.0,6.0,68,0.00,,,0.00,,2013-04-06 07:22:00,
2013-04-06 03:33:00,24.0,15.0,30.13,North,351,4.0,6.0,69,0.00,,,0.00,,2013-04-06 07:33:00,
2013-04-06 03:43:00,24.0,15.0,30.13,North,351,4.0,6.0,69,0.00,,,0.00,,2013-04-06 07:43:00,
2013-04-06 03:53:00,24.0,15.0,30.13,North,0,2.0,6.0,68,0.00,,,0.00,,2013-04-06 07:53:00,
2013-04-06 04:02:00,23.0,14.0,30.13,NNE,19,2.0,5.0,69,0.00,,,0.00,,2013-04-06 08:02:00,
2013-04-06 04:13:00,23.0,14.0,30.13,NNE,19,2.0,5.0,69,0.00,,,0.00,,2013-04-06 08:13:00,
2013-04-06 04:22:00,23.0,14.0,30.14,North,0,1.0,4.0,69,0.00,,,0.00,,2013-04-06 08:22:00,
2013-04-06 04:32:00,23.0,14.0,30.14,NNE,21,2.0,3.0,69,0.00,,,0.00,,2013-04-06 08:32:00,
2013-04-06 04:42:00,23.0,14.0,30.14,NNE,21,2.0,3.0,69,0.00,,,0.00,,2013-04-06 08:42:00,
2013-04-06 04:52:00,23.0,14.0,30.15,NNW,337,2.0,5.0,69,0.00,,,0.00,,2013-04-06 08:52:00,
2013-04-06 05:02:00,23.0,14.0,30.15,North,0,2.0,6.0,68,0.00,,,0.00,,2013-04-06 09:02:00,
2013-04-06 05:12:00,23.0,14.0,30.15,North,0,2.0,6.0,68,0.00,,,0.00,,2013-04-06 09:12:00,
2013-04-06 05:22:00,23.0,14.0,30.16,North,0,0.0,3.0,67,0.00,,,0.00,,2013-04-06 09:22:00,
2013-04-06 05:33:00,22.0,13.0,30.17,North,0,0.0,0.0,67,0.00,,,0.00,,2013-04-06 09:33:00,
2013-04-06 05:43:00,22.0,13.0,30.17,North,0,0.0,0.0,67,0.00,,,0.00,,2013-04-06 09:43:00,
2013-04-06 05:53:00,21.0,12.0,30.16,North,0,0.0,3.0,67,0.00,,,0.00,,2013-04-06 09:53:00,
2013-04-06 06:03:00,21.0,12.0,30.16,NNE,13,1.0,3.0,67,0.00,,,0.00,,2013-04-06 10:03:00,
2013-04-06 06:13:00,21.0,12.0,30.16,NNE,13,1.0,3.0,67,0.00,,,0.00,,2013-04-06 10:13:00,
2013-04-06 06:23:00,21.0,12.0,30.17,NNE,22,1.0,2.0,67,0.00,,,0.00,,2013-04-06 10:23:00,
2013-04-06 06:33:00,21.0,12.0,30.17,NNE,22,0.0,0.0,67,0.00,,,0.00,,2013-04-06 10:33:00,
2013-04-06 06:42:00,21.0,12.0,30.17,NNE,22,0.0,0.0,67,0.00,,,0.00,,2013-04-06 10:42:00,
2013-04-06 06:53:00,21.0,12.0,30.18,NNE,22,2.0,5.0,67,0.00,,,0.00,,2013-04-06 10:53:00,
2013-04-06 07:02:00,21.0,11.0,30.19,North,0,2.0,3.0,66,0.00,,,0.00,,2013-04-06 11:02:00,
2013-04-06 07:12:00,21.0,11.0,30.19,North,0,2.0,3.0,66,0.00,,,0.00,,2013-04-06 11:12:00,
2013-04-06 07:23:00,21.0,11.0,30.20,NE,40,1.0,3.0,65,0.00,,,0.00,,2013-04-06 11:23:00,
2013-04-06 07:33:00,22.0,12.0,30.20,NE,45,4.0,6.0,65,0.00,,,0.00,,2013-04-06 11:33:00,
2013-04-06 07:43:00,22.0,12.0,30.20,NE,45,4.0,6.0,65,0.00,,,0.00,,2013-04-06 11:43:00,
2013-04-06 07:53:00,22.0,11.0,30.21,NE,54,5.0,8.0,63,0.00,,,0.00,,2013-04-06 11:53:00,
2013-04-06 08:02:00,23.0,12.0,30.21,ENE,61,5.0,7.0,63,0.00,,,0.00,,2013-04-06 12:02:00,
2013-04-06 08:12:00,23.0,12.0,30.21,ENE,61,5.0,7.0,63,0.00,,,0.00,,2013-04-06 12:12:00,
2013-04-06 08:22:00,24.0,12.0,30.22,ENE,59,5.0,11.0,60,0.00,,,0.00,,2013-04-06 12:22:00,
2013-04-06 08:33:00,24.0,12.0,30.23,ENE,64,3.0,7.0,59,0.00,,,0.00,,2013-04-06 12:33:00,
2013-04-06 08:43:00,24.0,12.0,30.23,ENE,64,3.0,7.0,59,0.00,,,0.00,,2013-04-06 12:43:00,
2013-04-06 08:53:00,25.0,12.0,30.23,ENE,59,6.0,10.0,57,0.00,,,0.00,,2013-04-06 12:53:00,
2013-04-06 09:03:00,26.0,12.0,30.23,NE,54,7.0,10.0,55,0.00,,,0.00,,2013-04-06 13:03:00,
2013-04-06 09:13:00,26.0,12.0,30.23,NE,54,7.0,10.0,55,0.00,,,0.00,,2013-04-06 13:13:00,
2013-04-06 09:24:00,27.0,13.0,30.24,NNE,30,4.0,10.0,54,0.00,,,0.00,,2013-04-06 13:24:00,
2013-04-06 09:32:00,28.0,13.0,30.25,NNE,30,4.0,8.0,52,0.00,,,0.00,,2013-04-06 13:32:00,
2013-04-06 09:43:00,28.0,13.0,30.25,NNE,30,4.0,8.0,52,0.00,,,0.00,,2013-04-06 13:43:00,
2013-04-06 09:54:00,29.0,13.0,30.25,NE,38,5.0,9.0,50,0.00,,,0.00,,2013-04-06 13:54:00,
2013-04-06 10:04:00,29.0,12.0,30.25,NE,40,5.0,9.0,48,0.00,,,0.00,,2013-04-06 14:04:00,
2013-04-06 10:12:00,30.0,12.0,30.25,NNE,29,5.0,7.0,46,0.00,,,0.00,,2013-04-06 14:12:00,
2013-04-06 10:22:00,30.0,12.0,30.25,NNE,29,5.0,7.0,46,0.00,,,0.00,,2013-04-06 14:22:00,
2013-04-06 10:33:00,31.0,12.0,30.25,NE,38,6.0,9.0,44,0.00,,,0.00,,2013-04-06 14:33:00,
2013-04-06 10:43:00,31.0,12.0,30.25,NE,38,6.0,9.0,44,0.00,,,0.00,,2013-04-06 14:43:00,
2013-04-06 10:53:00,31.0,11.0,30.26,NNW,344,3.0,8.0,42,0.00,,,0.00,,2013-04-06 14:53:00,
2013-04-06 11:02:00,32.0,9.0,30.26,NE,35,6.0,9.0,38,0.00,,,0.00,,2013-04-06 15:02:00,
2013-04-06 11:12:00,32.0,9.0,30.26,NE,35,6.0,9.0,38,0.00,,,0.00,,2013-04-06 15:12:00,
2013-04-06 11:23:00,32.0,9.0,30.26,NNW,346,5.0,10.0,38,0.00,,,0.00,,2013-04-06 15:23:00,
2013-04-06 11:33:00,33.0,10.0,30.27,North,8,8.0,10.0,37,0.00,,,0.00,,2013-04-06 15:33:00,
2013-04-06 11:43:00,33.0,10.0,30.27,North,8,8.0,10.0,37,0.00,,,0.00,,2013-04-06 15:43:00,
2013-04-06 11:53:00,34.0,11.0,30.27,North,7,3.0,6.0,37,0.00,,,0.00,,2013-04-06 15:53:00,
2013-04-06 12:05:00,35.0,10.0,30.27,WSW,253,3.0,5.0,35,0.00,,,0.00,,2013-04-06 16:05:00,
2013-04-06 12:17:00,35.0,10.0,30.27,WSW,253,3.0,5.0,35,0.00,,,0.00,,2013-04-06 16:17:00,
2013-04-06 12:23:00,36.0,11.0,30.26,WNW,288,3.0,5.0,35,0.00,,,0.00,,2013-04-06 16:23:00,
2013-04-06 12:33:00,36.0,10.0,30.25,ESE,119,3.0,5.0,33,0.00,,,0.00,,2013-04-06 16:33:00,
2013-04-06 12:42:00,36.0,10.0,30.25,ESE,119,3.0,5.0,33,0.00,,,0.00,,2013-04-06 16:42:00,
2013-04-06 12:53:00,37.0,10.0,30.26,West,276,4.0,7.0,32,0.00,,,0.00,,2013-04-06 16:53:00,
2013-04-06 13:03:00,38.0,11.0,30.25,West,278,4.0,8.0,33,0.00,,,0.00,,2013-04-06 17:03:00,
2013-04-06 13:12:00,38.0,11.0,30.25,West,278,4.0,8.0,33,0.00,,,0.00,,2013-04-06 17:12:00,
2013-04-06 13:22:00,38.0,11.0,30.25,WSW,239,4.0,6.0,32,0.00,,,0.00,,2013-04-06 17:22:00,
2013-04-06 13:32:00,39.0,12.0,30.24,WSW,254,4.0,8.0,33,0.00,,,0.00,,2013-04-06 17:32:00,
2013-04-06 13:42:00,39.0,12.0,30.24,WSW,254,4.0,8.0,33,0.00,,,0.00,,2013-04-06 17:42:00,
2013-04-06 13:52:00,39.0,11.0,30.24,West,264,3.0,6.0,31,0.00,,,0.00,,2013-04-06 17:52:00,
2013-04-06 14:03:00,39.0,11.0,30.25,WSW,240,4.0,9.0,31,0.00,,,0.00,,2013-04-06 18:03:00,
2013-04-06 14:12:00,39.0,11.0,30.25,WSW,240,4.0,9.0,31,0.00,,,0.00,,2013-04-06 18:12:00,
2013-04-06 14:23:00,40.0,12.0,30.24,WSW,249,3.0,7.0,31,0.00,,,0.00,,2013-04-06 18:23:00,
2013-04-06 14:32:00,41.0,13.0,30.24,SW,216,1.0,6.0,32,0.00,,,0.00,,2013-04-06 18:32:00,
2013-04-06 14:42:00,41.0,13.0,30.24,SW,216,1.0,6.0,32,0.00,,,0.00,,2013-04-06 18:42:00,
2013-04-06 14:52:00,41.0,11.0,30.24,WNW,297,3.0,7.0,29,0.00,,,0.00,,2013-04-06 18:52:00,
2013-04-06 15:03:00,41.0,12.0,30.23,NW,324,4.0,7.0,30,0.00,,,0.00,,2013-04-06 19:03:00,
2013-04-06 15:12:00,41.0,12.0,30.23,NW,324,4.0,7.0,30,0.00,,,0.00,,2013-04-06 19:12:00,
2013-04-06 15:23:00,41.0,10.0,30.22,North,353,2.0,5.0,28,0.00,,,0.00,,2013-04-06 19:23:00,
2013-04-06 15:33:00,42.0,10.0,30.22,NE,35,2.0,6.0,27,0.00,,,0.00,,2013-04-06 19:33:00,
2013-04-06 15:42:00,42.0,10.0,30.22,NE,35,2.0,6.0,27,0.00,,,0.00,,2013-04-06 19:42:00,
2013-04-06 15:54:00,42.0,10.0,30.21,WSW,248,3.0,5.0,26,0.00,,,0.00,,2013-04-06 19:54:00,
2013-04-06 16:03:00,43.0,10.0,30.20,WSW,243,3.0,6.0,26,0.00,,,0.00,,2013-04-06 20:03:00,
2013-04-06 16:12:00,43.0,10.0,30.20,WSW,243,3.0,6.0,26,0.00,,,0.00,,2013-04-06 20:12:00,
2013-04-06 16:22:00,43.0,9.0,30.20,WSW,249,3.0,6.0,24,0.00,,,0.00,,2013-04-06 20:22:00,
2013-04-06 16:32:00,43.0,9.0,30.19,West,280,2.0,8.0,24,0.00,,,0.00,,2013-04-06 20:32:00,
2013-04-06 16:42:00,43.0,9.0,30.19,West,280,2.0,8.0,24,0.00,,,0.00,,2013-04-06 20:42:00,
2013-04-06 16:53:00,43.0,9.0,30.18,WNW,292,1.0,4.0,24,0.00,,,0.00,,2013-04-06 20:53:00,
2013-04-06 17:02:00,45.0,9.0,30.18,SE,146,2.0,5.0,23,0.00,,,0.00,,2013-04-06 21:02:00,
2013-04-06 17:13:00,47.0,11.0,30.18,SE,144,2.0,5.0,23,0.00,,,0.00,,2013-04-06 21:13:00,
2013-04-06 17:22:00,47.0,11.0,30.18,SE,144,2.0,5.0,23,0.00,,,0.00,,2013-04-06 21:22:00,
2013-04-06 17:33:00,48.0,11.0,30.16,SW,233,1.0,4.0,22,0.00,,,0.00,,2013-04-06 21:33:00,
2013-04-06 17:43:00,48.0,11.0,30.16,SW,233,1.0,4.0,22,0.00,,,0.00,,2013-04-06 21:43:00,
2013-04-06 17:53:00,47.0,10.0,30.16,SW,225,0.0,6.0,22,0.00,,,0.00,,2013-04-06 21:53:00,
2013-04-06 18:03:00,48.0,10.0,30.16,SW,225,1.0,5.0,21,0.00,,,0.00,,2013-04-06 22:03:00,
2013-04-06 18:13:00,48.0,10.0,30.16,SW,225,1.0,5.0,21,0.00,,,0.00,,2013-04-06 22:13:00,
2013-04-06 18:23:00,48.0,11.0,30.16,SSE,157,2.0,7.0,22,0.00,,,0.00,,2013-04-06 22:23:00,
2013-04-06 18:34:00,49.0,11.0,30.16,SW,234,3.0,5.0,21,0.00,,,0.00,,2013-04-06 22:34:00,
2013-04-06 18:43:00,49.0,11.0,30.16,SW,234,3.0,5.0,21,0.00,,,0.00,,2013-04-06 22:43:00,
2013-04-06 18:54:00,47.0,10.0,30.16,South,170,2.0,5.0,22,0.00,,,0.00,,2013-04-06 22:54:00,
2013-04-06 19:03:00,45.0,10.0,30.15,South,178,3.0,6.0,24,0.00,,,0.00,,2013-04-06 23:03:00,
2013-04-06 19:14:00,45.0,10.0,30.15,South,178,3.0,6.0,24,0.00,,,0.00,,2013-04-06 23:14:00,
2013-04-06 19:23:00,43.0,10.0,30.15,South,176,2.0,7.0,25,0.00,,,0.00,,2013-04-06 23:23:00,
2013-04-06 19:34:00,41.0,10.0,30.15,SE,134,3.0,5.0,27,0.00,,,0.00,,2013-04-06 23:34:00,
2013-04-06 19:42:00,41.0,10.0,30.15,SE,134,3.0,5.0,27,0.00,,,0.00,,2013-04-06 23:42:00,
2013-04-06 19:53:00,40.0,10.0,30.14,SE,137,1.0,3.0,29,0.00,,,0.00,,2013-04-06 23:53:00,
2013-04-06 20:02:00,38.0,11.0,30.14,SE,135,2.0,3.0,32,0.00,,,0.00,,2013-04-07 00:02:00,
2013-04-06 20:13:00,38.0,11.0,30.14,SE,135,2.0,3.0,32,0.00,,,0.00,,2013-04-07 00:13:00,
2013-04-06 20:22:00,38.0,11.0,30.14,SE,130,1.0,5.0,33,0.00,,,0.00,,2013-04-07 00:22:00,
2013-04-06 20:33:00,37.0,11.0,30.14,SE,132,3.0,6.0,33,0.00,,,0.00,,2013-04-07 00:33:00,
2013-04-06 20:43:00,37.0,11.0,30.14,SE,132,3.0,6.0,33,0.00,,,0.00,,2013-04-07 00:43:00,
2013-04-06 20:53:00,36.0,11.0,30.13,SSE,151,2.0,4.0,35,0.00,,,0.00,,2013-04-07 00:53:00,
2013-04-06 21:02:00,36.0,11.0,30.13,SE,135,1.0,4.0,35,0.00,,,0.00,,2013-04-07 01:02:00,
2013-04-06 21:12:00,36.0,11.0,30.13,SE,135,1.0,4.0,35,0.00,,,0.00,,2013-04-07 01:12:00,
2013-04-06 21:23:00,37.0,12.0,30.12,SE,137,3.0,7.0,35,0.00,,,0.00,,2013-04-07 01:23:00,
2013-04-06 21:32:00,37.0,11.0,30.12,SSE,153,2.0,7.0,34,0.00,,,0.00,,2013-04-07 01:32:00,
2013-04-06 21:43:00,37.0,11.0,30.12,SSE,153,2.0,7.0,34,0.00,,,0.00,,2013-04-07 01:43:00,
2013-04-06 21:53:00,37.0,11.0,30.12,SSE,163,4.0,8.0,34,0.00,,,0.00,,2013-04-07 01:53:00,
2013-04-06 22:03:00,37.0,11.0,30.11,SSE,157,3.0,10.0,34,0.00,,,0.00,,2013-04-07 02:03:00,
2013-04-06 22:12:00,37.0,11.0,30.11,SSE,157,3.0,10.0,34,0.00,,,0.00,,2013-04-07 02:12:00,
2013-04-06 22:23:00,37.0,11.0,30.11,South,171,6.0,10.0,33,0.00,,,0.00,,2013-04-07 02:23:00,
2013-04-06 22:33:00,38.0,10.0,30.11,South,174,5.0,12.0,31,0.00,,,0.00,,2013-04-07 02:33:00,
2013-04-06 22:43:00,38.0,10.0,30.11,South,174,5.0,12.0,31,0.00,,,0.00,,2013-04-07 02:43:00,
2013-04-06 22:52:00,38.0,9.0,30.11,SSE,163,7.0,15.0,30,0.00,,,0.00,,2013-04-07 02:52:00,
2013-04-06 23:02:00,38.0,10.0,30.10,SSE,161,3.0,13.0,31,0.00,,,0.00,,2013-04-07 03:02:00,
2013-04-06 23:12:00,38.0,10.0,30.10,SSE,161,3.0,13.0,31,0.00,,,0.00,,2013-04-07 03:12:00,
2013-04-06 23:22:00,38.0,10.0,30.10,SSE,167,6.0,14.0,31,0.00,,,0.00,,2013-04-07 03:22:00,
2013-04-06 23:35:00,39.0,11.0,30.10,SSE,157,6.0,11.0,31,0.00,,,0.00,,2013-04-07 03:35:00,
2013-04-06 23:43:00,39.0,11.0,30.10,SSE,157,6.0,11.0,31,0.00,,,0.00,,2013-04-07 03:43:00,
2013-04-06 23:55:00,39.0,11.0,30.09,SSE,166,5.0,15.0,31,0.00,,,0.00,,2013-04-07 03:55:00,